Vertical_Velocity
-12 -10 -7 -8 -5 -8 -2 3 1 -3 -9 -2 -1 -5 -1 5 3 -0 -0 1 1 3 2 -0 3 -2 1
-3 1 -1 -3 -6 1 -2 2 -2 -9 -1 -5 -7 1 -1 -3 -2 1 2 0 2 1 1 0 1 0 2
-6 -2 -2 -3 3 -2 1 -0 -6 -1 -4 -5 4 -2 0 -2 -2 -1 -2 -1 -0 0 1 1 2 -1 -1
-2 -4 -1 5 -4 -9 13 -7 0 -6 -3 -9 -2 1 -4 -0 0 -0 -0 0 0 -1 -2 -1 1 2 1
-3 -2 1 2 -7 -0 -0 6 -6 -2 2 -2 2 -5 -4 -2 -4 -1 -0 -0 1 4 1 -1 -2 1 1
1 -4 4 1 -1 -3 -2 1 8 -16 5 -2 -4 1 -1 -1 -0 1 2 2 1 0 2 2 0 -0 -2
1 -7 3 -3 -0 3 -3 -1 -2 -3 10 3 -3 3 -1 -1 0 -0 0 0 -3 -6 -7 -3 -3 -3 -3
-3 0 -1 -0 -4 0 0 3 -0 -8 -1 6 0 -2 -4 -5 -2 -0 -0 0 -0 -0 1 3 4 4 4
-4 -3 -2 -3 -3 2 -4 -1 5 1 -3 -5 -3 6 -5 -2 -1 -2 -2 -1 -1 -1 0 -0 -2 -1 3
-6 -6 -4 -3 -5 -7 -2 2 -1 11 -13 1 -2 3 10 -7 -4 -0 1 -5 -3 -1 -1 -0 -1 -3 -0
-1 -0 -2 -1 -1 -5 -4 -3 4 -5 -2 -1 2 -3 -7 1 -2 -2 -3 1 0 -3 -2 1 1 -1 1
2 0 1 -2 -3 -4 -1 -4 -5 5 1 -2 -1 -1 0 5 -6 5 2 -2 1 -1 0 -0 -1 -1 -1
-0 -1 1 2 1 -2 -4 -1 -8 3 -1 -1 -1 -3 -4 -4 -8 2 6 7 -0 4 4 3 1 1 0
1 -1 -0 -1 -1 1 1 0 2 -7 -2 1 -1 -1 0 -3 -5 3 -3 4 9 2 -1 1 3 1 1
-0 -0 -1 2 -3 -0 -2 -1 -2 5 0 -2 -0 -1 2 2 3 2 3 2 1 -2 3 3 0 1 1
-1 -1 -0 1 1 0 -1 -4 2 2 -1 0 1 1 -1 -3 6 2 0 1 1 -6 -2 -2 2 5 4
1 0 1 -1 1 -1 -1 -1 -3 -1 1 -0 2 2 2 -2 -5 -2 2 1 -2 -2 -1 1 0 -1 -0
Height
5472 5457 5437 5408 5392 5371 5359 5348 5341 5332 5322 5315 5309 5305 5305 5304 5303 5302 5299 5298 5297 5298 5301 5305 5311 5316 5325
5434 5420 5399 5382 5364 5351 5341 5331 5323 5318 5309 5302 5298 5294 5291 5288 5286 5284 5282 5280 5278 5277 5277 5282 5284 5289 5295
5394 5382 5371 5356 5348 5337 5329 5320 5313 5306 5299 5294 5287 5283 5279 5274 5271 5269 5266 5264 5263 5262 5261 5262 5264 5268 5272
5371 5359 5349 5342 5334 5327 5320 5311 5304 5296 5294 5285 5277 5273 5269 5264 5261 5257 5254 5251 5249 5247 5246 5246 5247 5251 5254
5358 5347 5339 5333 5325 5317 5310 5305 5296 5287 5290 5279 5272 5266 5258 5252 5245 5241 5239 5237 5236 5235 5233 5232 5231 5233 5236
5348 5340 5332 5324 5318 5310 5303 5298 5295 5282 5283 5275 5264 5259 5251 5243 5237 5232 5226 5222 5220 5218 5218 5218 5217 5217 5218
5338 5330 5324 5317 5313 5307 5300 5293 5285 5277 5276 5270 5258 5252 5241 5232 5226 5220 5214 5209 5205 5202 5201 5202 5203 5203 5203
5329 5324 5318 5312 5306 5300 5295 5291 5283 5272 5265 5262 5252 5246 5234 5225 5217 5211 5205 5199 5195 5192 5190 5189 5190 5191 5191
5322 5316 5310 5304 5298 5294 5289 5284 5280 5270 5262 5255 5247 5241 5230 5221 5213 5205 5198 5193 5188 5184 5181 5177 5175 5173 5174
5319 5312 5305 5298 5292 5285 5280 5277 5271 5268 5257 5253 5243 5236 5230 5218 5211 5203 5196 5188 5182 5176 5171 5166 5161 5157 5156
5314 5308 5301 5295 5288 5281 5274 5267 5263 5258 5250 5245 5239 5231 5223 5218 5208 5199 5189 5182 5174 5166 5159 5154 5147 5142 5141
5307 5300 5295 5289 5283 5275 5268 5261 5254 5252 5248 5241 5235 5229 5222 5215 5206 5198 5188 5175 5167 5158 5149 5140 5132 5127 5124
5299 5293 5287 5281 5276 5271 5263 5257 5249 5244 5242 5237 5232 5226 5220 5212 5203 5194 5186 5177 5165 5156 5144 5131 5120 5111 5108
5292 5286 5281 5275 5269 5265 5260 5255 5249 5241 5237 5234 5230 5225 5219 5212 5202 5196 5187 5178 5169 5155 5144 5132 5118 5106 5102
5286 5281 5275 5270 5263 5258 5253 5248 5244 5241 5235 5231 5227 5224 5220 5214 5206 5199 5194 5185 5175 5163 5155 5144 5132 5120 5112
5281 5275 5270 5266 5260 5255 5249 5244 5239 5234 5231 5228 5226 5224 5220 5215 5210 5204 5199 5193 5185 5176 5168 5161 5152 5143 5135
5275 5270 5265 5261 5257 5253 5247 5242 5235 5231 5227 5225 5224 5223 5221 5217 5212 5207 5204 5199 5193 5187 5182 5176 5171 5165 5161